This is the latest recevied weather packets stored in our database for station/object KG5MMT-12. If no packets are shown the sender has not sent any weather packets the latest 10 day(s).
| Time | Temp. | Humidity | Pressure | Rain* | Wind** | Luminosity | Snow |
|---|---|---|---|---|---|---|---|
| 1788632639 | 27.22° C | 35% | 0 hPa | 0 mm | - | - | - |
| 1788632338 | 27.22° C | 34% | 0 hPa | 0 mm | - | - | - |
| 1788632038 | 27.22° C | 35% | 0 hPa | 0 mm | - | - | - |
| 1788631738 | 27.22° C | 36% | 0 hPa | 0 mm | - | - | - |
| 1788631449 | 26.67° C | 36% | 0 hPa | 0 mm | - | - | - |
| 1788631138 | 26.67° C | 37% | 0 hPa | 0 mm | - | - | - |
| 1788630838 | 26.67° C | 38% | 0 hPa | 0 mm | - | - | - |
| 1788630539 | 26.67° C | 36% | 0 hPa | 0 mm | - | - | - |
| 1788630238 | 26.11° C | 38% | 0 hPa | 0 mm | - | - | - |
| 1788629938 | 26.11° C | 37% | 0 hPa | 0 mm | - | - | - |
| 1788629638 | 25.56° C | 39% | 0 hPa | 0 mm | - | - | - |
| 1788629338 | 26.11° C | 38% | 0 hPa | 0 mm | - | - | - |
| 1788629038 | 26.11° C | 37% | 0 hPa | 0 mm | - | - | - |
| 1788628738 | 26.11° C | 41% | 0 hPa | 0 mm | - | - | - |
| 1788628438 | 25.56° C | 40% | 0 hPa | 0 mm | - | - | - |
| 1788628138 | 25° C | 40% | 0 hPa | 0 mm | - | - | - |
| 1788627838 | 24.44° C | 44% | 0 hPa | 0 mm | - | - | - |
| 1788627538 | 23.89° C | 45% | 0 hPa | 0 mm | - | - | - |
| 1788627238 | 23.89° C | 47% | 0 hPa | 0 mm | - | - | - |
| 1788626938 | 23.33° C | 48% | 0 hPa | 0 mm | - | - | - |
| 1788626638 | 23.33° C | 49% | 0 hPa | 0 mm | - | - | - |
| 1788626338 | 23.33° C | 48% | 0 hPa | 0 mm | - | - | - |
| 1788626038 | 22.78° C | 50% | 0 hPa | 0 mm | - | - | - |
| 1788625738 | 22.78° C | 50% | 0 hPa | 0 mm | - | - | - |
| 1788625438 | 22.22° C | 53% | 0 hPa | 0 mm | - | - | - |
* Rain latest hour (hover to see other rain measurements)
** Current wind speed in m/s (hover to see current wind gust speed)